Showing default

KOYOH, 58464

Orbit data source: Space-Track

KOYOH, 58464 is a payload satellite owned by Kanazawa U (JP) in SSO that was launched on Fri, 01 Dec 2023 UTC via an FALCON 9 launch vehicle from the Air Force Western Test Range (AFWTR). Payload-class satellites include a variety of spacecraft equipped with specific instruments for various scientific and technological missions. These include communications satellites like Starlink; space stations such as the ISS; scientific satellites like the Hubble; Earth observation satellites from companies like Planet Labs, Umbra, and HawkEye 360; GPS; miniature CubeSats for education and research; and military/defense satellites.

Loading next visibility...
Identifier
58464, 2023-185C
Orbit
SSO
Last TLE update
6 hours ago
Origin
Manufacturer
Kanazawa U
Mission
Operational Amateur Technology
Bus & Motor
KOYOH, Unknown motor
Mass
43 kg wet, 43 kg dry
Launch date (UTC)
2023-12-01 (2 years ago)
Launch vehicle
FALCON 9
Launch site
Air Force Western Test Range (AFWTR)
Object type
Payload
Rocket body
Debris
Shape & HBR
Box, 0.5 m
Radar Cross Section
0.375 m², Medium (>0.1 m² and < 1m²)

Expand to show TLE details & history

TLE from 6 hours ago
0 KOYOH
1 58464U 23185C   25192.17243350  .00002995  00000-0  17348-3 0  9991
2 58464  97.5739 261.3549 0008775  55.0170 305.1884 15.12963681 88472
Epoch: 2025-07-11T04:08Z
TLE epoch observation values (Epoch: 2025-07-11T04:08:18.254Z)
Latitude
0.00003°
Longitude
-90.04934°
Altitude
526.754 km
Speed
7.602 km/s
True Right ascension
17h 25m 25s
True Declination
0° 00' 00"
Sunlit
Object was in full shadow at epoch
Visualization orbit readout
Latitude
-49.9336°
Longitude
81.14386°
Altitude
552.627 km
Speed
7.581 km/s
Apparent Right ascension
07h 40m 20s
Apparent Declination
-52° 36' 14"
Sunlit
Object is in daylight
Visualization observer readout
Local Sidereal Time
22:12:40
Azimuth
128.931° SE
Elevation
-61.214°
Doppler factor
1
Orbital elements
Apogee altitude
530.207 km
Perigee altitude
518.093 km
Semi-major axis
6,902.287 km
Eccentricity
0.00088
Inclination
97.5739°
RAAN
261.3549°
Arg. of periapsis
55.017°
True anomaly
Unknown
Mean anomaly
305.1884°
Eccentric anomaly
Unknown
Mean motion
3.78489 °/min
Orbital period
95.11 mins
BSTAR
0.00017348
Loading maneuver chart data...
Loading SW <> Apogee altitude chart data...
Loading historical data...
Loading historical data...
Loading historical data...
Loading historical data...
Loading historical data...
Loading historical data...
Loading historical data...

KOYOH Visibility forecast

Observer location: undefined°, undefined°

Span
Click to sort rows by Start time (UTC) header in descending order
Start Az.
Max El. time (UTC)
Max El. Az.
Max El.
End time (UTC)
End Az.
7 mins2025-07-11 17:23:52.788Z16.989° NNE2025-07-11 17:26:52.788Z63.949° ENE43.061°2025-07-11 17:30:52.788Z187.005° SSW
5 mins2025-07-12 04:05:52.788Z122.141° SE2025-07-12 04:07:52.788Z74.471° E27.284°2025-07-12 04:10:52.788Z12.183° NNE
|